loading
|
Showing default

YAOGAN-43 02A, 60945

Orbit data source: Space-Track

YAOGAN-43 02A, 60945 is a payload satellite owned by PLA GAD (CN) in LEO that was launched on Tue, 03 Sep 2024 UTC via a CHANG ZHENG 4B launch vehicle from the Xichang Space Center, China (XSC). Payloads include a variety of satellites, spacecraft, and rockets equipped with specific instruments for various scientific and technological missions. These include communications satellites like Starlink; space stations such as the ISS; scientific satellites like the Hubble; Earth observation satellites from companies like Planet Labs, Umbra, and HawkEye 360; GPS; miniature CubeSats for education and research; and military/defense satellites.

Loading next visibility...
Loading greatness...
YAOGAN-43 02A details
Identifier
60945, 2024-156A
Orbit
LEO
Last TLE update13 hours ago
Origin
Flag of CNPLA GAD (CN / PRC)
ManufacturerSAST
Mission statusOperational
MissionUnknown
Bus & MotorUnknown
Mass~300 kg wet, ~300 kg dry
Launch date (UTC)
2024-09-03 (2 weeks ago)
Launch vehicle
CHANG ZHENG 4B
Launch site
Xichang Space Center, China (XSC)
Object type
Payload
Rocket body
Debris
Radar Cross SectionMedium (>0.1 m² and <1 m²)

Expand to show TLE details & history

TLE from 13 hours ago
0 YAOGAN-43 02A
1 60945U 24156A   24261.38522551  .00089681  00000-0  34979-2 0  9994
2 60945  34.9980 249.5767 0006666  28.3835 331.7243 15.24675198  2195
Epoch: 2024-09-17T09:14Z
Definitive object data (Epoch: 2024-09-17T09:14:43.484Z)
Latitude0.00003°
Longitude114.09492°
Altitude486.636 km
Speed7.626 km/s
True Right ascension16h 38m 18s
True Declination0° 00' 00"
Sunlit
Object was in daylight at TLE epoch
Predictive object data (real-time)
Latitude34.85014°
Longitude-150.82276°
Altitude490.018 km
Speed7.627 km/s
Apparent Right ascension00h 51m 23s
Apparent Declination-1° 03' 03"
Sunlit
Object is in full shadow
Predictive observer data (real-time)
Local Sidereal Time15:03:14
Azimuth46.06° ENE
Elevation-40.934°
Doppler factor1
Orbital elements
Apogee499.595 km
Perigee490.432 km
Semi-major axis6,873.151 km
Eccentricity0.0006666
Inclination34.998°
RAAN249.5767°
Arg. of periapsis28.3835°
True anomaly331.68809°
Mean anomaly331.7243°
Eccentric anomaly331.7062°
Mean motion3.80899 °/min
BSTAR0.0034979
Period94.51 mins
No data available

YAOGAN-43 02A Visibility forecast

Observer location: 39.9160978°, -105.1181434

YAOGAN-43 02A is not visible in the next 10 days
Span
Click to sort rows by Start time (UTC) header in descending order
Start Az.
Max El. time (UTC)
Max El. Az.
Max El.
End time (UTC)
End Az.